[[{"header":{"parameterUnit":"m.s-1","parameterCategory":1,"la1":30.2991,"la2":30.254,"lo1":-89.0895,"lo2":-89.0444,"dy":0.0017,"dx":0.0017,"nx":28,"ny":28,"refTime":"2023-08-29T21:00:00:Z","depth":0,"parameterNumber":2,"parameterNumberName":"U-component_of_WINDS"},"data":[0,0,0,0,0,0,0,0,0,0,0,0,0,0,0,0,0,0,0,0,0,0,0,0,0,0,0,0,0,0,0,0,0,0,0,0,0,0,0,0,0,0,0,0,0,0,0,0,0,0,0,0,0,0,0,0,0,0,-2.34,-2.34,0,-2.3373,-2.3373,-2.3372,-2.3267,-2.3264,-2.3262,-2.326,-2.3236,-2.3237,-2.3239,0,0,0,0,0,0,0,0,0,0,0,0,0,-2.3365,-2.3366,-2.34,-2.34,-2.34,-2.3373,-2.3373,-2.3372,-2.3267,-2.3264,-2.3261,-2.3259,-2.3235,-2.3237,-2.3239,0,0,0,0,0,0,0,0,0,0,0,0,0,-2.3364,-2.3367,-2.34,-2.3344,-2.3339,-2.3373,-2.3373,-2.3372,-2.3268,-2.3264,-2.3261,-2.3257,-2.3235,-2.3237,-2.3239,-2.3327,0,0,-2.3247,-2.3248,0,0,0,0,0,0,0,0,-2.3364,-2.3365,-2.3353,-2.3348,-2.3342,-2.3319,-2.3351,-2.3357,-2.3269,-2.3295,-2.326,-2.3255,-2.3267,-2.3266,-2.3269,-2.3326,-2.3325,-2.3247,-2.3249,-2.325,-2.325,0,0,0,0,0,0,0,-2.3364,-2.3366,-2.3389,-2.3352,-2.3346,-2.3321,-2.3317,-2.3352,-2.3302,-2.3292,-2.3285,-2.3283,-2.3263,-2.3267,-2.3268,-2.3325,-2.3247,-2.3249,-2.3251,-2.3252,-2.3454,-2.3458,0,0,0,0,0,0,-2.3372,-2.3366,-2.339,-2.3389,-2.3344,-2.3325,-2.332,-2.333,-2.3301,-2.3293,-2.3286,-2.3278,-2.3265,-2.3265,-2.3267,-2.3369,-2.325,-2.3252,-2.3253,-2.345,-2.3455,-2.3459,0,0,0,0,0,0,-2.3371,-2.3375,-2.3391,-2.3375,-2.3376,-2.3329,-2.3342,-2.3332,-2.3336,-2.3296,-2.3287,-2.3299,-2.3262,-2.3263,-2.3313,-2.3367,-2.3253,-2.3255,-2.3446,-2.3452,-2.3457,-2.3574,0,0,0,0,0,0,-2.3371,-2.3375,-2.3407,-2.3377,-2.3377,-2.3437,-2.3345,-2.3334,-2.334,-2.3329,-2.3306,-2.3299,-2.3259,-2.331,-2.3316,-2.3368,-2.3257,-2.3441,-2.3448,-2.3455,-2.3565,-2.3583,-2.3598,0,0,0,0,0,-2.337,-2.3442,-2.3409,-2.3413,-2.3416,-2.3441,-2.3441,-2.3393,-2.3344,-2.3377,-2.3352,-2.3299,-2.336,-2.3316,-2.3321,-2.3375,-2.3437,-2.3446,-2.3455,-2.3558,-2.358,-2.3598,0,0,0,0,0,0,-2.348,-2.3437,-2.34,-2.3464,-2.3457,-2.3423,-2.3462,-2.3417,-2.3425,-2.3415,-2.3356,-2.3352,-2.3411,-2.3397,-2.335,-2.346,-2.339,-2.34,-2.3466,-2.3487,-2.3503,-2.3506,-2.3259,0,0,0,0,0,-2.3512,-2.3535,-2.3496,-2.3556,-2.3554,-2.3509,-2.3518,-2.3482,-2.3472,-2.3469,-2.3447,-2.3441,-2.3459,-2.3472,-2.3486,-2.3562,-2.3557,-2.3602,-2.3619,-2.3633,-2.3643,-2.3684,-2.3704,-2.3488,-2.3488,-2.3488,0,0,-2.3578,-2.3557,-2.3575,-2.3578,-2.3568,-2.3594,-2.3507,-2.3538,-2.3558,-2.3474,-2.352,-2.3504,-2.3493,-2.3558,-2.3585,-2.3549,-2.3701,-2.3644,-2.3655,-2.3658,-2.3695,-2.3716,-2.3734,-2.3494,-2.3493,-2.3492,0,0,-2.3712,-2.3698,-2.3747,-2.3739,-2.3724,-2.3694,-2.3706,-2.3679,-2.3665,-2.371,-2.3648,-2.3671,-2.3702,-2.3697,-2.3699,-2.3833,-2.3786,-2.3839,-2.3926,-2.3967,-2.3984,-2.3999,-2.4049,-2.4067,-2.3849,-2.3849,-2.3849,0,-2.3796,-2.3832,-2.3778,-2.3814,-2.3817,-2.3742,-2.3792,-2.3787,-2.3779,-2.3784,-2.3743,-2.3782,-2.3769,-2.3832,-2.3865,-2.3868,-2.3881,-2.3842,-2.3986,-2.4,-2.4014,-2.406,-2.4078,-2.3856,-2.3855,-2.3854,-2.3853,0,-2.3937,-2.3963,-2.4005,-2.3998,-2.4006,-2.405,-2.4003,-2.4018,-2.3982,-2.3957,-2.4004,-2.3986,-2.3996,-2.4008,-2.3973,-2.4067,-2.4045,-2.3996,-2.3925,-2.4042,-2.4084,-2.4102,-2.3865,-2.3863,-2.3861,-2.3859,0,0,-2.414,-2.4103,-2.412,-2.4116,-2.4095,-2.4115,-2.4156,-2.4164,-2.4179,-2.4176,-2.4209,-2.4238,-2.4193,-2.4195,-2.4159,-2.4195,-2.4304,-2.4141,-2.414,-2.4174,-2.4408,-2.4446,-2.4467,-2.4272,-2.4275,-2.4277,-2.4409,0,-2.4269,-2.4335,-2.4288,-2.4362,-2.4386,-2.4315,-2.4351,-2.4343,-2.432,-2.4339,-2.4314,-2.4336,-2.4274,-2.4275,-2.4307,-2.4284,-2.435,-2.4273,-2.4304,-2.4306,-2.4311,-2.4489,-2.4529,-2.4655,-2.4426,-2.4428,-2.443,0,-2.4428,-2.4432,-2.4509,-2.4484,-2.4492,-2.4525,-2.4529,-2.4547,-2.4537,-2.4519,-2.4522,-2.4476,-2.4516,-2.4445,-2.4499,-2.4448,-2.4458,-2.4448,-2.4452,-2.4454,-2.4376,-2.4498,-2.4693,-2.4713,-2.4456,-2.4454,-2.4452,0,-2.4571,-2.4595,-2.4644,-2.4643,-2.4615,-2.464,-2.463,-2.4616,-2.4624,-2.4629,-2.4634,-2.4644,-2.4649,-2.4658,-2.4618,-2.4569,-2.4678,-2.4603,-2.4666,-2.4667,-2.4693,-2.4692,-2.4894,-2.4697,-2.4697,-2.4696,-2.4696,0,-2.472,-2.4771,-2.4708,-2.4739,-2.4793,-2.4739,-2.4795,-2.4777,-2.4766,-2.4793,-2.4732,-2.4759,-2.4703,-2.4724,-2.4693,-2.4744,-2.4746,-2.4734,-2.4725,-2.474,-2.4742,-2.4747,-2.4738,-2.4701,-2.47,-2.4699,-2.4698,0,-2.489,-2.4849,-2.4899,-2.4868,-2.4862,-2.4904,-2.4878,-2.4906,-2.4879,-2.4914,-2.4919,-2.4878,-2.4901,-2.486,-2.4878,-2.4857,-2.4929,-2.4906,-2.4932,-2.4926,-2.4991,-2.4986,-2.5205,-2.5232,-2.5016,-2.5018,-2.502,0,-2.4988,-2.5025,-2.4999,-2.5012,-2.5005,-2.5027,-2.5035,-2.4984,-2.4996,-2.4988,-2.5017,-2.5034,-2.5045,-2.5085,-2.5058,-2.5071,-2.5049,-2.5125,-2.5051,-2.5065,-2.5052,-2.5051,-2.5056,-2.5141,-2.5143,-2.5145,-2.5147,0,-2.5169,-2.5147,-2.5161,-2.5169,-2.518,-2.5184,-2.5183,-2.5198,-2.5144,-2.516,-2.5182,-2.519,-2.5208,-2.5227,-2.5234,-2.5224,-2.5178,-2.517,-2.5186,-2.5202,-2.5217,-2.5212,-2.4975,-2.5166,-2.5164,-2.5163,-2.5162,-2.5161,-2.5307,-2.5337,-2.5323,-2.5341,-2.5335,-2.5336,-2.5361,-2.5338,-2.5355,-2.5365,-2.5333,-2.5363,-2.5353,-2.5358,-2.5354,-2.5377,-2.5344,-2.5366,-2.5372,-2.5378,-2.5389,-2.5212,-2.5378,-2.5377,-2.5377,-2.5376,-2.5376,0,-2.5486,-2.5473,-2.549,-2.5491,-2.5506,-2.5459,-2.5456,-2.5472,-2.5498,-2.5493,-2.5505,-2.5531,-2.5549,-2.5523,-2.5537,-2.5561,-2.554,-2.5566,-2.5565,-2.5564,-2.5418,-2.5404,-2.5583,-2.5583,-2.5583,-2.5583,-2.5583,-2.5583,-2.5581,-2.563,-2.5607,-2.5653,-2.564,-2.5668,-2.5671,-2.5672,-2.5667,-2.5699,-2.5713,-2.5695,-2.5682,-2.5695,-2.571,-2.5702,-2.5711,-2.5745,-2.5731,-2.5594,-2.5574,-2.5555,-2.5542,-2.5747,-2.5748,-2.5875,-2.5876,-2.5877]},{"header":{"parameterUnit":"m.s-1","parameterCategory":1,"la1":30.2991,"la2":30.254,"lo1":-89.0895,"lo2":-89.0444,"dy":0.0017,"dx":0.0017,"nx":28,"ny":28,"refTime":"2023-08-29T21:00:00:Z","depth":0,"parameterNumber":3,"parameterNumberName":"V-component_of_WINDS"},"data":[0,0,0,0,0,0,0,0,0,0,0,0,0,0,0,0,0,0,0,0,0,0,0,0,0,0,0,0,0,0,0,0,0,0,0,0,0,0,0,0,0,0,0,0,0,0,0,0,0,0,0,0,0,0,0,0,0,0,-4.213,-4.213,0,-4.2098,-4.2097,-4.2097,-4.2033,-4.2032,-4.2031,-4.2029,-4.1997,-4.1997,-4.1998,0,0,0,0,0,0,0,0,0,0,0,0,0,-4.2139,-4.2139,-4.213,-4.213,-4.2129,-4.2098,-4.2097,-4.2097,-4.2033,-4.2032,-4.203,-4.2029,-4.1997,-4.1997,-4.1998,0,0,0,0,0,0,0,0,0,0,0,0,0,-4.2124,-4.2139,-4.213,-4.2094,-4.209,-4.2098,-4.2097,-4.2097,-4.2034,-4.2032,-4.203,-4.2028,-4.1997,-4.1997,-4.1998,-4.2038,0,0,-4.1999,-4.1999,0,0,0,0,0,0,0,0,-4.2125,-4.2123,-4.21,-4.2096,-4.2092,-4.2067,-4.2088,-4.2077,-4.2034,-4.2055,-4.2029,-4.2027,-4.2022,-4.202,-4.2018,-4.2037,-4.2035,-4.1999,-4.2,-4.2,-4.2,0,0,0,0,0,0,0,-4.2126,-4.2124,-4.2117,-4.2099,-4.2095,-4.208,-4.2075,-4.2086,-4.205,-4.2053,-4.2048,-4.2045,-4.202,-4.2018,-4.2017,-4.2035,-4.1999,-4.2,-4.2,-4.2,-4.2085,-4.2087,0,0,0,0,0,0,-4.2132,-4.2126,-4.2118,-4.2116,-4.2104,-4.2081,-4.2076,-4.2077,-4.2049,-4.2043,-4.2047,-4.2043,-4.2018,-4.2017,-4.2016,-4.2061,-4.2,-4.2,-4.2,-4.2083,-4.2086,-4.2088,0,0,0,0,0,0,-4.2132,-4.2132,-4.212,-4.212,-4.2117,-4.2083,-4.2085,-4.2078,-4.2076,-4.2045,-4.2038,-4.2052,-4.2017,-4.2015,-4.2033,-4.2059,-4.2,-4.2001,-4.2081,-4.2084,-4.2087,-4.2153,0,0,0,0,0,0,-4.2133,-4.2132,-4.2147,-4.212,-4.2117,-4.2137,-4.2086,-4.2078,-4.2077,-4.2071,-4.2047,-4.2042,-4.2015,-4.2033,-4.2034,-4.2059,-4.2001,-4.2079,-4.2082,-4.2086,-4.2148,-4.2158,-4.2166,0,0,0,0,0,-4.2133,-4.2167,-4.2148,-4.2147,-4.2135,-4.2139,-4.2137,-4.2105,-4.2079,-4.2094,-4.2074,-4.2043,-4.2057,-4.2035,-4.2036,-4.2061,-4.2077,-4.2081,-4.2086,-4.2144,-4.2156,-4.2166,0,0,0,0,0,0,-4.2198,-4.2163,-4.2141,-4.2167,-4.2157,-4.2128,-4.2145,-4.2119,-4.2115,-4.2109,-4.2071,-4.2066,-4.2089,-4.2077,-4.2054,-4.2099,-4.2062,-4.2067,-4.2106,-4.2117,-4.2126,-4.2128,-4.2002,0,0,0,0,0,-4.2215,-4.2221,-4.219,-4.2216,-4.2212,-4.218,-4.2181,-4.2157,-4.2144,-4.2139,-4.2121,-4.211,-4.2112,-4.2114,-4.2114,-4.2147,-4.2141,-4.2165,-4.2174,-4.2181,-4.2186,-4.2202,-4.2212,-4.2103,-4.2103,-4.2103,0,0,-4.2251,-4.2232,-4.2238,-4.2229,-4.2217,-4.2225,-4.2176,-4.2186,-4.2191,-4.2141,-4.2157,-4.2143,-4.2128,-4.2154,-4.2164,-4.2145,-4.2215,-4.2187,-4.2193,-4.2193,-4.2208,-4.2218,-4.2228,-4.2106,-4.2105,-4.2105,0,0,-4.2319,-4.2306,-4.2326,-4.2316,-4.2299,-4.2278,-4.2283,-4.2259,-4.2248,-4.2263,-4.2225,-4.2232,-4.2236,-4.2227,-4.2223,-4.2289,-4.226,-4.2291,-4.2337,-4.2353,-4.2362,-4.237,-4.2393,-4.2402,-4.2295,-4.2295,-4.2295,0,-4.2365,-4.2374,-4.234,-4.2352,-4.2349,-4.2304,-4.2324,-4.2316,-4.2301,-4.2301,-4.2279,-4.2283,-4.227,-4.2293,-4.231,-4.2308,-4.2313,-4.2293,-4.2364,-4.2371,-4.2377,-4.2399,-4.2408,-4.2299,-4.2299,-4.2298,-4.2298,0,-4.2432,-4.2439,-4.2458,-4.2444,-4.2443,-4.246,-4.2428,-4.2432,-4.2409,-4.239,-4.2406,-4.2389,-4.2385,-4.2389,-4.2367,-4.2409,-4.2398,-4.2371,-4.2332,-4.2392,-4.2412,-4.242,-4.2304,-4.2303,-4.2302,-4.2301,0,0,-4.2539,-4.2507,-4.2514,-4.2507,-4.2487,-4.2492,-4.2506,-4.2502,-4.2506,-4.2498,-4.2509,-4.2514,-4.2489,-4.2484,-4.2461,-4.2476,-4.253,-4.2446,-4.2446,-4.2462,-4.2576,-4.2596,-4.2606,-4.2511,-4.2512,-4.2513,-4.2577,0,-4.2603,-4.2626,-4.2595,-4.2625,-4.2631,-4.2589,-4.2602,-4.2591,-4.2574,-4.2577,-4.2559,-4.2563,-4.2529,-4.2527,-4.2539,-4.252,-4.2552,-4.2515,-4.2521,-4.2522,-4.2526,-4.2617,-4.2638,-4.2699,-4.2584,-4.2586,-4.2587,0,-4.268,-4.2675,-4.2705,-4.2683,-4.2684,-4.2696,-4.269,-4.2694,-4.2681,-4.2668,-4.2663,-4.2635,-4.2649,-4.2612,-4.263,-4.2606,-4.2607,-4.2598,-4.26,-4.2598,-4.2558,-4.2618,-4.2717,-4.2727,-4.2599,-4.2598,-4.2597,0,-4.2755,-4.2756,-4.2774,-4.277,-4.2744,-4.2753,-4.2743,-4.2728,-4.2728,-4.2723,-4.2723,-4.272,-4.2718,-4.2717,-4.2689,-4.2664,-4.2711,-4.2671,-4.27,-4.2701,-4.2711,-4.2711,-4.2812,-4.2713,-4.2713,-4.2712,-4.2712,0,-4.2829,-4.2849,-4.2807,-4.2818,-4.284,-4.2805,-4.2828,-4.2814,-4.2801,-4.2809,-4.2773,-4.2781,-4.2744,-4.2749,-4.2727,-4.2745,-4.2745,-4.2735,-4.2729,-4.2738,-4.2739,-4.2737,-4.2732,-4.2715,-4.2714,-4.2714,-4.2713,0,-4.2916,-4.2889,-4.2906,-4.288,-4.2874,-4.2891,-4.287,-4.2879,-4.2861,-4.2871,-4.2872,-4.2842,-4.2846,-4.2818,-4.2817,-4.2802,-4.2831,-4.2818,-4.2836,-4.2831,-4.2862,-4.2859,-4.2965,-4.2977,-4.2871,-4.2872,-4.2873,0,-4.2964,-4.2979,-4.2955,-4.2958,-4.2949,-4.2954,-4.2954,-4.2921,-4.2922,-4.2908,-4.292,-4.2921,-4.2919,-4.2927,-4.2906,-4.2905,-4.2891,-4.2928,-4.2891,-4.29,-4.2891,-4.2891,-4.2892,-4.2936,-4.2937,-4.2938,-4.2939,0,-4.3054,-4.304,-4.304,-4.3036,-4.3036,-4.3032,-4.3025,-4.3029,-4.2994,-4.2997,-4.3,-4.2999,-4.2998,-4.2999,-4.2994,-4.2984,-4.2956,-4.2952,-4.2958,-4.2967,-4.2977,-4.2972,-4.2857,-4.2949,-4.2948,-4.2947,-4.2947,-4.2946,-4.3123,-4.3134,-4.3119,-4.3121,-4.3112,-4.3106,-4.3114,-4.3096,-4.3098,-4.3094,-4.3075,-4.3082,-4.3069,-4.3059,-4.3052,-4.3057,-4.3039,-4.3049,-4.3051,-4.3054,-4.306,-4.2976,-4.3056,-4.3056,-4.3056,-4.3056,-4.3055,0,-4.321,-4.3198,-4.32,-4.3192,-4.3193,-4.3167,-4.3158,-4.3161,-4.3168,-4.3158,-4.3158,-4.3162,-4.3163,-4.3142,-4.3141,-4.3149,-4.3136,-4.315,-4.3149,-4.3147,-4.3076,-4.307,-4.316,-4.316,-4.316,-4.316,-4.316,-4.316,-4.3255,-4.3273,-4.3257,-4.327,-4.3258,-4.3264,-4.3262,-4.3257,-4.3249,-4.3255,-4.3255,-4.3242,-4.3228,-4.3225,-4.3226,-4.3219,-4.3221,-4.3238,-4.3228,-4.3162,-4.3152,-4.3142,-4.3137,-4.3239,-4.3239,-4.3299,-4.3299,-4.33]}]]